x

9410230 - La Jolla, Ca (ljac1) Weather Station

1:12 - Thu 17th Aug 2017 All times are PDT. -7 hours from GMT.

  • Wind
    7mph, 9mph gusts
  • Sea Temp 72°f
  • Ar Temp 70°f
  • Sea Pressure 1015.8mb
  • 9410230 - La Jolla, Ca
  • 9410230 - La Jolla, Ca

More Historic Weather Station data

Upgrade to MSW Pro to gain access to the past 30 days of data for over 8000 Wavebouys and Weather Stations around the globe.

Join

Comparision Forecast

View Surf forecast
   
Qui 08/17 1:12 7 9 mph 1015.8mb 72f 70f
1:06 7 8 mph 1015.8mb 71f 71f
1:00 7 9 mph 1015.8mb 71f 70f
12:54 6 9 mph 1015.8mb 71f 70f
12:48 6 8 mph 1015.9mb 70f 70f
12:42 6 8 mph 1015.9mb 70f 70f
12:36 6 7 mph 1015.9mb 69f 70f
12:30 6 7 mph 1016mb 69f 70f
12:24 7 8 mph 1016mb 69f 70f
12:18 6 8 mph 1016mb 69f 70f
12:12 5 7 mph 1016mb 68f 70f
12:06 6 8 mph 1016.1mb 68f 69f
12:00 6 7 mph 1016.1mb 67f 69f
11:54 6 7 mph 1016.1mb 66f 70f
11:48 6 6 mph 1016.2mb 64f 70f
11:42 6 8 mph 1016.3mb 62f 70f
11:36 7 8 mph 1016.3mb 61f 69f
11:30 6 7 mph 1016.3mb 61f 70f
11:24 5 6 mph 1016.3mb 61f 70f
11:18 5 6 mph 1016.4mb 61f 70f
11:12 3 6 mph 1016.5mb 61f 70f
11:06 3 5 mph 1016.5mb 61f 71f
11:00 5 6 mph 1016.5mb 61f 70f
10:54 5 5 mph 1016.5mb 61f 70f
10:48 3 6 mph 1016.5mb 61f 70f
10:42 3 6 mph 1016.5mb 61f 70f
10:36 3 5 mph 1016.5mb 61f 70f
10:30 5 5 mph 1016.5mb 61f 71f
10:24 3 5 mph 1016.5mb 61f 71f
10:18 3 6 mph 1016.5mb 62f 70f
10:12 2 5 mph 1016.5mb 62f 70f
10:06 3 3 mph 1016.5mb 62f 70f
10:00 2 3 mph 1016.5mb 62f 70f
9:54 2 3 mph 1016.5mb 62f 70f
9:48 3 5 mph 1016.5mb 62f 70f
9:42 2 3 mph 1016.4mb 62f 70f
9:36 2 3 mph 1016.4mb 62f 71f
9:30 2 2 mph 1016.4mb 62f 71f
9:24 1 2 mph 1016.3mb 63f 71f
9:18 1 2 mph 1016.3mb 63f 72f
9:12  -  1 mph 1016.3mb 63f 73f
9:06  -  2 mph 1016.3mb 63f 72f
9:00 1 1 mph 1016.2mb 63f 73f
8:54  -  1 mph 1016.2mb 63f 74f
8:48  -  1 mph 1016.1mb 63f 73f
8:42 1 2 mph 1016.1mb 63f 72f
8:36 1 2 mph 1016mb 63f 72f
8:30  -  1 mph 1016mb 63f 74f
8:24  -  0 mph 1016mb 63f 75f
8:18  -  1 mph 1016mb 63f 73f
8:12  -  1 mph 1016mb 63f 73f
8:06  -  1 mph 1016mb 63f 74f
8:00  -  1 mph 1016mb 64f 73f
7:54  -  1 mph 1015.9mb 64f 73f
7:48  -  1 mph 1015.8mb 64f 71f
7:42  -  1 mph 1015.7mb 64f 70f
7:36 1 2 mph 1015.7mb 64f 69f
7:30 1 1 mph 1015.6mb 64f 67f
7:24  -  2 mph 1015.6mb 64f 66f
7:18 2 3 mph 1015.6mb 64f 66f
7:12 2 3 mph 1015.6mb 65f 66f
7:06 2 3 mph 1015.5mb 65f 66f
7:00 3 3 mph 1015.4mb 65f 65f
6:54 3 5 mph 1015.4mb 65f 65f
6:48 3 5 mph 1015.4mb 65f 65f
6:42 3 6 mph 1015.3mb 66f 65f
6:36 5 6 mph 1015.3mb 67f 64f
6:30 5 7 mph 1015.2mb 67f 64f
6:24 5 6 mph 1015.2mb 68f 64f
6:18 6 7 mph 1015.1mb 68f 64f
6:12 6 6 mph 1015mb 68f 64f
6:06 5 6 mph 1015mb 69f 64f
6:00 5 5 mph 1014.9mb 69f 65f
5:54 5 5 mph 1014.9mb 69f 65f
5:48 3 5 mph 1014.8mb 69f 65f
5:42 2 2 mph 1014.7mb 69f 65f
5:36 2 3 mph 1014.7mb 69f 65f
5:30 3 3 mph 1014.7mb 69f 65f
5:24 2 3 mph 1014.7mb 69f 65f
5:18 2 2 mph 1014.6mb 69f 65f
5:12 2 3 mph 1014.5mb 69f 65f
5:06 2 3 mph 1014.5mb 69f 65f
5:00 3 3 mph 1014.5mb 71f 65f
4:54 3 5 mph 1014.4mb 71f 65f
4:48 5 5 mph 1014.4mb 71f 65f
4:42 3 6 mph 1014.3mb 71f 65f
4:36 6 6 mph 1014.4mb 71f 65f
4:30 6 7 mph 1014.3mb 71f 64f
4:24 6 7 mph 1014.3mb 71f 64f
4:18 7 7 mph 1014.3mb 71f 65f
4:12 7 7 mph 1014.4mb 71f 64f
4:06 7 7 mph 1014.4mb 71f 65f
4:00 6 7 mph 1014.4mb 71f 64f
3:54 6 7 mph 1014.4mb 71f 64f
3:48 6 6 mph 1014.4mb 71f 65f
3:42 6 6 mph 1014.4mb 71f 65f
3:36 5 6 mph 1014.4mb 71f 65f
3:30 5 6 mph 1014.4mb 71f 65f
3:24 5 5 mph 1014.4mb 71f 65f
3:18 3 6 mph 1014.3mb 71f 65f
3:12 6 6 mph 1014.3mb 71f 65f
3:06 5 6 mph 1014.4mb 71f 65f
3:00 6 6 mph 1014.4mb 71f 65f
2:54 5 5 mph 1014.5mb 71f 65f
2:48 2 3 mph 1014.4mb 71f 65f
2:42 2 2 mph 1014.4mb 71f 65f
2:36 1 1 mph 1014.4mb 71f 65f
2:30  -  1 mph 1014.5mb 71f 65f
2:24 1 2 mph 1014.5mb 71f 65f
2:18 2 2 mph 1014.5mb 71f 65f
2:12 1 2 mph 1014.6mb 71f 65f
2:06 2 3 mph 1014.6mb 71f 65f
2:00 3 3 mph 1014.6mb 71f 65f
1:54 2 2 mph 1014.7mb 71f 65f
1:48 1 2 mph 1014.6mb 71f 65f
1:42 1 2 mph 1014.7mb 71f 65f
1:36 2 2 mph 1014.7mb 71f 65f
1:30 1 2 mph 1014.7mb 71f 65f
1:24 2 2 mph 1014.7mb 71f 66f
1:18 1 1 mph 1014.7mb 71f 66f
1:12 1 2 mph 1014.7mb 71f 65f
1:06 1 1 mph 1014.7mb 71f 66f
1:00 1 2 mph 1014.7mb 71f 66f
12:54 1 2 mph 1014.7mb 71f 66f
12:48  -  1 mph 1014.7mb 70f 66f
12:42 1 2 mph 1014.7mb 70f 66f
12:36  -  1 mph 1014.8mb 70f 66f
12:30  -  mph 1014.8mb 69f 66f
12:24  -  mph 1014.8mb 68f 66f
12:18  -  mph 1014.7mb 67f 66f
12:12  -  2 mph 1014.7mb 62f 66f
12:06 2 3 mph 1014.6mb 62f 66f
12:00 3 3 mph 1014.6mb 62f 66f
Qua 08/16 11:54 2 2 mph 1014.6mb 62f 66f
11:48 1 3 mph 1014.6mb 62f 66f
11:42 1 2 mph 1014.6mb 62f -
11:36 2 2 mph 1014.6mb 62f -
11:30 1 2 mph 1014.6mb 62f 66f
11:24 2 3 mph 1014.7mb 62f 66f
11:18 2 2 mph 1014.7mb 62f 67f
11:12 3 3 mph 1014.7mb 62f 66f
11:06 2 5 mph 1014.7mb 63f 67f
11:00  -  2 mph 1014.6mb 63f 66f
10:54 2 3 mph 1014.6mb 63f 67f
10:48 2 3 mph 1014.6mb 63f 67f
10:42 3 5 mph 1014.6mb 63f 67f
10:36 3 5 mph 1014.6mb 64f 67f
10:30 3 5 mph 1014.6mb 64f 67f
10:24 3 5 mph 1014.6mb 64f 67f
10:18 2 5 mph 1014.5mb 64f 67f
10:12 5 5 mph 1014.5mb 64f 67f
10:06 3 6 mph 1014.5mb 64f 67f
10:00 3 6 mph 1014.5mb 64f 67f
9:54 5 6 mph 1014.5mb 64f 67f
9:48 5 6 mph 1014.4mb 64f 67f
9:42 5 6 mph 1014.4mb 65f 67f
9:36 5 6 mph 1014.3mb 65f 67f
9:30 5 9 mph 1014.3mb 65f 67f
9:24 6 8 mph 1014.3mb 65f 67f
9:18 5 7 mph 1014.2mb 65f 67f
9:12 6 8 mph 1014.2mb 65f 67f
9:06 6 8 mph 1014.1mb 66f 67f
9:00 6 9 mph 1014.1mb 66f 67f
8:54 7 9 mph 1014mb 66f 67f
8:48 7 9 mph 1014mb 66f 67f
8:42 6 7 mph 1014mb 66f 67f
8:36 7 9 mph 1013.9mb 67f 67f
8:30 8 10 mph 1013.9mb 67f 67f
8:24 7 8 mph 1013.9mb 68f 67f
8:18 7 9 mph 1013.9mb 69f 67f
8:12 7 9 mph 1013.8mb 69f 67f
8:06 7 9 mph 1013.7mb 70f 67f
8:00 8 9 mph 1013.7mb 71f 67f
7:54 6 7 mph 1013.7mb 72f 67f
7:48 7 9 mph 1013.6mb 72f 67f
7:42 7 8 mph 1013.6mb 72f 67f
7:36 6 8 mph 1013.5mb 72f 67f
7:30 8 9 mph 1013.5mb 72f 67f
7:24 7 9 mph 1013.5mb 72f 67f
7:18 7 9 mph - - -
7:12 7 9 mph 1013.4mb 72f 67f
7:06 8 10 mph 1013.3mb 72f 67f
7:00 9 10 mph 1013.3mb 72f 67f
6:54 8 11 mph 1013.3mb 72f 67f
6:48 8 10 mph - - -
6:42 10 11 mph 1013.2mb 72f 67f
6:36 9 10 mph 1013.2mb 72f 67f
6:30 10 11 mph 1013.2mb 72f 67f
6:24 9 11 mph 1013.2mb 72f 67f
6:18 9 11 mph - - -
6:12 9 13 mph 1013.2mb 72f 68f
6:06 9 11 mph 1013.1mb 72f 68f
6:00 10 11 mph 1013.2mb 72f 68f
5:54 8 10 mph 1013.2mb 72f 68f
5:48 7 9 mph 1013.2mb 72f 69f
5:42 8 9 mph 1013.2mb 72f 69f
5:36 7 9 mph 1013.2mb 72f 69f
5:30 7 10 mph 1013.3mb 72f 68f
5:24 8 11 mph 1013.2mb 72f 68f
5:18 8 10 mph 1013.2mb 72f 69f
5:12 9 11 mph 1013.2mb 72f 68f
5:06 8 9 mph 1013.3mb 72f 68f
5:00 8 9 mph 1013.3mb 72f 69f
4:54 7 9 mph 1013.4mb 71f 69f
4:48 7 8 mph - - -
4:42 6 9 mph 1013.5mb 71f 69f
4:36 7 10 mph 1013.6mb 71f 69f
4:30 7 10 mph 1013.6mb 71f 69f
4:24 8 9 mph 1013.6mb 71f 69f
4:18 8 10 mph 1013.7mb 71f 69f
4:12 7 9 mph 1013.7mb 71f 69f
4:06 8 9 mph 1013.8mb 71f 70f
4:00 7 9 mph 1013.9mb 71f 70f
3:54 7 9 mph 1013.9mb 71f 70f
3:48 8 9 mph - - -
3:42 8 10 mph 1013.9mb 71f 70f
3:36 7 10 mph 1013.9mb 71f 70f
3:30 8 9 mph 1013.9mb 71f 69f
3:24 7 10 mph 1013.9mb 71f 69f
3:18 7 9 mph 1013.9mb 71f 70f
3:12 8 10 mph 1014mb 71f 70f
3:06 7 9 mph 1014mb 72f 70f
3:00 7 9 mph 1014mb 71f 70f
2:54 8 9 mph 1014mb 71f 70f
2:48 8 9 mph - - -
2:42 7 9 mph 1014mb 71f 70f
2:36 6 9 mph 1014.1mb 71f 70f
2:30 6 9 mph 1014.2mb 71f 70f
2:24 6 8 mph 1014.3mb 71f 70f
2:18 8 9 mph 1014.4mb 71f 69f
2:12 8 9 mph 1014.5mb 71f 69f
2:06 7 9 mph 1014.6mb 71f 69f
2:00 8 10 mph 1014.6mb 71f 69f
1:54 8 9 mph 1014.6mb 71f 69f
1:48 6 8 mph 1014.6mb 71f 69f
1:42 7 9 mph 1014.7mb 71f 69f
1:36 7 9 mph 1014.7mb 71f 69f
1:30 6 8 mph 1014.8mb 71f 69f
1:24 6 8 mph 1014.8mb 71f 70f
1:18 7 8 mph 1014.8mb 70f 69f
1:12 6 8 mph 1014.8mb 70f 70f
1:06 5 7 mph 1014.9mb 70f 70f
1:00 5 7 mph 1014.9mb 70f 70f
12:54 5 7 mph 1015mb 70f 70f
12:48 5 7 mph 1015.1mb 70f 70f
12:42 6 7 mph 1015.1mb 70f 70f
12:36 6 7 mph 1015.1mb 69f 70f
12:30 6 8 mph 1015.1mb 69f 70f
12:24 6 7 mph 1015.1mb 69f 69f
12:18 6 7 mph 1015.1mb 69f 70f
12:12 5 6 mph 1015.2mb 69f 71f
12:06 5 7 mph 1015.2mb 69f 71f
12:00 6 8 mph 1015.2mb 69f 70f
11:54 5 8 mph 1015.2mb 68f 70f
11:48 7 8 mph 1015.3mb 68f 70f
11:42 5 9 mph 1015.3mb 67f 70f
11:36 6 9 mph 1015.3mb 67f 69f
11:30 7 9 mph 1015.3mb 67f 69f
11:24 7 9 mph 1015.4mb 67f 69f
11:18 8 10 mph 1015.5mb 67f 69f
11:12 8 9 mph 1015.5mb 66f 69f
11:06 7 9 mph 1015.4mb 66f 69f
11:00 7 8 mph 1015.4mb 66f 69f
10:54 7 8 mph 1015.4mb 65f 69f
10:48 6 7 mph 1015.4mb 65f 69f
10:42 6 7 mph 1015.4mb 64f 69f
10:36 6 8 mph 1015.3mb 64f 69f
10:30 6 7 mph 1015.3mb 64f 69f
10:24 6 7 mph 1015.3mb 63f 68f
10:18 6 7 mph 1015.2mb 63f 68f
10:12 6 7 mph 1015.3mb 63f 68f
10:06 6 7 mph 1015.3mb 62f 69f
10:00 6 7 mph 1015.2mb 62f 68f
9:54 6 8 mph 1015.3mb 62f 69f
9:48 6 7 mph 1015.3mb 62f 69f
9:42 7 7 mph 1015.3mb 62f 68f
9:36 5 6 mph 1015.3mb 62f 69f
9:30 3 5 mph 1015.2mb 62f 69f
9:24 3 6 mph 1015.2mb 62f 69f
9:18 5 7 mph 1015.2mb 62f 68f
9:12 5 6 mph 1015.1mb 62f 68f
9:06 3 3 mph 1015.1mb 62f 70f
9:00 1 3 mph 1015.1mb 62f 71f
8:54 2 3 mph 1015.1mb 62f 70f
8:48 1 3 mph 1015.2mb 62f 70f
8:42 3 5 mph 1015.1mb 62f 69f
8:36 2 2 mph 1015.1mb 62f 71f
8:30 2 2 mph 1015.1mb 63f 72f
8:24 1 3 mph 1015.1mb 63f 70f
8:18 1 3 mph 1015.1mb 63f 70f
8:12 2 3 mph 1015.1mb 63f 70f
8:06  -  1 mph 1015mb 64f 71f
8:00  -  2 mph 1015mb 64f 69f
7:54 3 3 mph 1014.9mb 64f 68f
7:48 2 3 mph 1014.8mb 64f 68f
7:42 2 3 mph 1014.8mb 64f 68f
7:36 1 3 mph 1014.7mb 65f 68f
7:30 1 3 mph 1014.7mb 65f 67f
7:24 2 3 mph 1014.7mb 65f 67f
7:18 2 5 mph 1014.7mb 66f 67f
7:12 3 3 mph 1014.6mb 67f 67f
7:06 2 3 mph 1014.6mb 68f 67f
7:00 3 5 mph 1014.5mb 68f 67f
6:54 2 3 mph 1014.5mb 69f 67f
6:48 3 5 mph 1014.5mb 69f 67f
6:42 5 6 mph 1014.5mb 69f 67f
6:36 3 6 mph 1014.5mb 69f 67f
6:30 3 5 mph 1014.4mb 69f 67f
6:24 3 6 mph 1014.4mb 69f 67f
6:18 3 5 mph 1014.4mb 69f 67f
6:12 2 3 mph 1014.3mb 69f 67f
6:06 3 5 mph 1014.3mb 69f 67f
6:00 5 5 mph 1014.2mb 69f 67f
5:54 3 5 mph 1014.1mb 69f 67f
5:48 3 6 mph 1014.1mb 69f 67f
5:42 3 6 mph 1014mb 69f 67f
5:36 3 5 mph 1014mb 69f 67f
5:30 5 5 mph 1014mb 69f 67f
5:24 3 5 mph 1013.9mb 69f 67f
5:18 3 5 mph 1013.8mb 69f 67f
5:12 3 5 mph 1013.7mb 69f 67f
5:06 5 6 mph 1013.8mb 69f 67f
5:00 5 6 mph 1013.7mb 69f 67f
4:54 3 3 mph 1013.7mb 69f 67f
4:48 3 3 mph 1013.7mb 69f 67f
4:42 2 3 mph 1013.6mb 69f 67f
4:36 3 3 mph 1013.6mb 69f 66f
4:30 3 3 mph 1013.6mb 69f 66f
4:24 2 2 mph 1013.6mb 69f 66f
4:18 2 2 mph 1013.6mb 69f 66f
4:12 1 2 mph 1013.6mb 69f 66f
4:06 2 2 mph 1013.7mb 69f 66f
4:00 2 3 mph 1013.7mb 69f 66f
3:54 2 3 mph 1013.7mb 69f 66f
3:48 2 2 mph 1013.6mb 69f 66f
3:42 2 2 mph 1013.6mb 69f 66f
3:36 2 2 mph 1013.6mb 69f 66f
3:30  -  1 mph 1013.6mb 69f 66f
3:24  -  0 mph 1013.6mb 69f 66f
3:18  -  1 mph 1013.6mb 69f 66f
3:12  -  1 mph 1013.5mb 69f 66f
3:06 1 2 mph 1013.5mb 69f 66f
3:00  -  0 mph 1013.4mb 69f 66f
2:54  -  0 mph 1013.4mb 69f 66f
2:48  -  1 mph 1013.4mb 69f 66f
2:42  -  1 mph 1013.3mb 69f 66f
2:36  -  2 mph 1013.3mb 69f 66f
2:30 1 2 mph 1013.3mb 69f 66f
2:24  -  2 mph 1013.3mb 69f 66f
2:18  -  3 mph 1013.3mb 69f 66f
2:12 3 5 mph 1013.3mb 69f 66f
2:06 3 5 mph 1013.3mb 68f 66f
2:00 2 6 mph 1013.3mb 68f 66f
1:54 2 5 mph 1013.3mb 68f 66f
1:48 2 5 mph 1013.4mb 68f 66f
1:42 2 3 mph 1013.4mb 68f 66f
1:36 2 5 mph 1013.4mb 68f 66f
1:30 3 5 mph 1013.4mb 68f 65f
1:24 3 5 mph 1013.4mb 68f 65f
1:18 5 6 mph 1013.5mb 68f 65f
1:12 3 5 mph 1013.4mb 68f 65f
1:06 3 5 mph 1013.4mb 68f 65f
1:00 5 5 mph 1013.5mb 68f 65f
12:54 3 5 mph 1013.5mb 68f 65f
12:48 5 6 mph 1013.5mb 68f 65f
12:42 5 6 mph 1013.4mb 68f 65f
12:36 5 6 mph 1013.5mb 68f 65f
12:30 5 7 mph 1013.5mb 68f 65f
12:24 6 6 mph 1013.6mb 68f 65f
12:18 5 6 mph 1013.6mb 68f 65f
12:12 5 6 mph 1013.5mb 68f 65f
12:06 6 6 mph 1013.5mb 68f 65f
12:00 5 6 mph 1013.5mb 69f 65f
Ter 08/15 11:54 6 6 mph 1013.6mb 69f 65f
11:48 6 6 mph 1013.6mb 69f 65f
11:42 6 7 mph 1013.6mb 69f 65f
11:36 6 7 mph 1013.6mb 68f 64f
11:30 6 6 mph 1013.6mb 68f 64f
11:24 5 6 mph 1013.6mb 68f 64f
11:18 5 6 mph 1013.5mb 67f 64f
11:12 3 5 mph 1013.5mb 67f 64f
11:06 3 5 mph 1013.5mb 66f 65f
11:00 3 3 mph 1013.4mb 66f 65f
10:54 2 3 mph 1013.4mb 67f 65f
10:48 2 3 mph 1013.4mb 67f 65f
10:42 2 3 mph 1013.4mb 67f 65f
10:36 2 3 mph 1013.4mb 67f 65f
10:30 3 3 mph 1013.4mb 67f 65f
10:24 2 3 mph 1013.3mb 68f 65f
10:18 3 3 mph 1013.3mb 69f 65f
10:12 2 3 mph 1013.3mb 69f 64f
10:06 2 3 mph 1013.3mb 69f 64f
10:00 2 3 mph 1013.2mb 69f 64f
9:54 2 3 mph 1013.2mb 69f 64f
9:48 2 3 mph 1013.1mb 69f 65f
9:42 2 3 mph 1013.1mb 69f 65f
9:36 2 3 mph 1013.1mb 69f 65f
9:30 2 3 mph 1013mb 69f 65f
9:24 3 5 mph 1013mb 69f 65f
9:18 3 5 mph 1012.9mb 69f 65f
9:12 2 5 mph 1012.9mb 69f 65f
9:06 3 5 mph 1012.9mb 69f 65f
9:00 5 5 mph 1012.8mb 69f 65f
8:54 3 5 mph 1012.8mb 69f 65f
8:48 3 5 mph 1012.7mb 69f 65f
8:42 3 6 mph 1012.6mb 69f 65f
8:36 3 5 mph 1012.6mb 69f 65f
8:30  -  mph 1012.6mb 69f 65f
8:24  -  mph 1012.5mb 69f 65f
8:18  -  mph 1012.5mb 69f 65f
8:12 3 6 mph 1012.4mb 69f 65f
8:06 5 7 mph 1012.3mb 69f 65f
8:00 7 8 mph 1012.3mb 69f 65f
7:54 6 8 mph 1012.2mb 69f 65f
7:48 7 9 mph 1012.1mb 69f 65f
7:42 5 7 mph 1012.1mb 69f 65f
7:36 5 7 mph 1012.1mb 69f 65f
7:30 9 10 mph 1012.1mb 69f 65f
7:24 3 6 mph 1012.1mb 69f 66f
7:18 5 8 mph - - -
7:12 2 8 mph 1012mb 69f 66f
7:06 7 8 mph 1012mb 69f 65f
7:00 3 6 mph 1012mb 69f 66f
6:54 2 7 mph 1012mb 69f 66f
6:48 6 7 mph 1012mb 69f 66f
6:42 3 8 mph 1012mb 69f 66f
6:36 6 7 mph 1012mb 69f 66f
6:30 2 6 mph 1011.9mb 69f 66f
6:24 5 8 mph 1011.9mb 69f 66f
6:18 6 7 mph 1012mb 69f 66f
6:12 6 7 mph 1012mb 69f 66f
6:06 6 7 mph 1012mb 69f 66f
6:00 6 7 mph 1012.1mb 69f 66f
5:54 6 8 mph 1012.1mb 69f 66f
5:48 5 8 mph 1012.2mb 69f 66f
5:42 5 6 mph 1012.2mb 69f 66f
5:36 6 7 mph 1012.2mb 69f 66f
5:30 7 8 mph 1012.3mb 69f 66f
5:24 8 9 mph 1012.3mb 69f 66f
5:18 6 8 mph 1012.3mb 69f 66f
5:12 6 8 mph 1012.4mb 69f 66f
5:06 7 9 mph 1012.3mb 69f 66f
5:00 6 8 mph 1012.4mb 69f 66f
4:54 6 7 mph 1012.4mb 69f 66f
4:48 7 9 mph 1012.5mb 69f 66f
4:42 7 8 mph 1012.5mb 69f 66f
4:36 7 8 mph 1012.5mb 69f 66f
4:30 6 8 mph 1012.6mb 69f 66f
4:24 6 9 mph 1012.6mb 69f 66f
4:18 6 8 mph - - -
4:12 8 10 mph 1012.7mb 69f 66f
4:06 8 10 mph 1012.7mb 69f 66f
4:00 9 10 mph - 69f 66f
3:54 5 9 mph - 69f 66f
3:48 7 8 mph 1012.7mb - -
3:42 6 8 mph 1012.8mb 69f 66f
3:36 6 8 mph 1012.8mb 69f 66f
3:30 6 9 mph 1012.9mb 69f 67f
3:24 6 9 mph 1012.9mb 69f 67f
3:18 7 9 mph - - -
3:12 6 8 mph 1012.9mb 69f 66f
3:06 6 9 mph 1013mb 69f 66f
3:00 7 10 mph 1013mb 69f 66f
2:54 5 8 mph 1013mb 69f 66f
2:48 8 10 mph 1013.1mb - -
2:42 7 11 mph 1013.1mb 69f 66f
2:36 7 8 mph 1013.1mb 69f 66f
2:30 6 9 mph 1013.1mb 69f 66f
2:24 6 9 mph 1013.1mb 69f 66f
2:18 7 9 mph 1013.2mb 69f 66f
2:12 7 9 mph 1013.2mb 69f 66f
2:06 8 9 mph 1013.2mb 69f 65f
2:00 9 10 mph 1013.2mb 69f 65f
1:54 9 10 mph 1013.2mb 69f 65f
1:48 10 11 mph 1013.2mb 69f 65f
1:42 9 11 mph 1013.2mb 69f 65f
1:36 9 11 mph 1013.2mb 69f 65f
1:30 10 13 mph 1013.1mb 69f 65f
1:24 11 13 mph 1013.2mb 69f 65f
1:18 10 13 mph 1013.2mb 69f 65f
1:12 11 13 mph 1013.2mb 69f 65f
1:06 10 13 mph 1013.2mb 69f 65f
1:00 9 11 mph 1013.2mb 69f 66f
12:54 8 9 mph 1013.1mb 69f 66f
12:48 8 10 mph 1013.2mb 69f 66f
12:42 9 11 mph 1013.2mb 68f 66f
12:36 7 9 mph 1013.2mb 68f 66f
12:30 7 7 mph 1013.3mb 68f 66f
12:24 7 8 mph 1013.3mb 68f 66f
12:18 8 9 mph 1013.3mb 68f 66f
12:12 9 10 mph 1013.3mb 68f 65f
12:06 9 10 mph 1013.4mb 68f 65f
12:00 9 9 mph 1013.4mb 68f 65f
11:54 8 9 mph 1013.5mb 68f 65f
11:48 8 9 mph 1013.5mb 67f 65f
11:42 8 9 mph 1013.5mb 67f 65f
11:36 8 9 mph 1013.5mb 67f 65f
11:30 8 9 mph 1013.5mb 66f 65f
11:24 8 9 mph 1013.6mb 65f 65f
11:18 8 9 mph 1013.6mb 64f 66f
11:12 6 7 mph 1013.6mb 64f 66f
11:06 2 3 mph 1013.6mb 64f 66f
11:00 5 5 mph 1013.6mb 64f 65f
10:54 5 5 mph 1013.5mb 64f 65f
10:48 3 3 mph 1013.5mb 64f 66f
10:42 2 3 mph 1013.5mb 65f 66f
10:36 3 3 mph 1013.5mb 65f 66f
10:30 2 3 mph 1013.5mb 65f 66f
10:24 3 3 mph 1013.4mb 65f 66f
10:18 2 3 mph 1013.4mb 65f 66f
10:12 1 3 mph 1013.4mb 65f 66f
10:06 2 5 mph 1013.3mb 65f 66f
10:00 2 3 mph 1013.2mb 65f 66f
9:54  -  2 mph 1013.2mb 65f 66f
9:48 1 2 mph 1013.2mb 65f 66f
9:42 2 3 mph 1013.1mb 65f 65f
9:36 2 3 mph 1013.1mb 65f 65f
9:30 3 3 mph 1013.1mb 65f 65f
9:24 2 3 mph 1013.1mb 65f 65f
9:18 2 3 mph 1013mb 65f 65f
9:12 3 3 mph 1013.1mb - 65f
9:06 2 3 mph 1013.1mb - 65f
9:00 2 3 mph 1013.1mb 66f 65f
8:54 2 3 mph 1013mb 66f 65f
8:48 3 3 mph 1013mb 65f 65f
8:42 3 5 mph 1013mb 65f 65f
8:36 5 6 mph 1013mb 66f 65f
8:30 3 6 mph 1012.9mb 66f 65f
8:24 3 6 mph 1012.9mb 66f 65f
8:18 2 3 mph 1012.9mb 66f 65f
8:12 3 5 mph 1012.9mb 66f 65f
8:06 3 5 mph 1012.7mb 66f 65f
8:00 3 5 mph 1012.7mb 65f 65f
7:54 3 6 mph 1012.7mb 65f 66f
7:48 5 6 mph 1012.6mb 65f 66f
7:42 5 6 mph 1012.6mb 65f 66f
7:36 6 8 mph 1012.6mb 65f 66f
7:30 6 7 mph 1012.5mb 65f 66f
7:24 5 7 mph 1012.5mb 64f 66f
7:18 6 7 mph 1012.5mb 64f 66f
7:12 3 5 mph 1012.5mb 64f 66f
7:06 3 5 mph 1012.5mb 64f 66f
7:00 3 6 mph 1012.4mb 64f 66f
6:54 5 6 mph 1012.4mb 64f 66f
6:48 6 7 mph 1012.3mb 65f 66f
6:42 6 7 mph 1012.2mb 65f 66f
6:36 6 8 mph 1012.2mb 66f 66f
6:30 6 8 mph 1012.1mb 66f 66f
6:24 7 8 mph 1012mb 67f 66f
6:18 7 9 mph 1011.9mb 69f 66f
6:12 7 8 mph 1011.8mb 69f 67f
6:06 6 8 mph 1011.8mb 69f 67f
6:00 2 5 mph 1011.8mb 69f 67f
5:54 2 5 mph 1011.8mb 69f 67f
5:48 5 6 mph 1011.7mb 68f 67f
5:42 3 6 mph 1011.6mb 68f 67f
5:36 5 8 mph 1011.6mb 68f 67f
5:30 6 7 mph 1011.5mb 68f 67f
5:24 6 7 mph 1011.6mb 68f 67f
5:18 2 6 mph 1011.5mb 68f 67f
5:12 5 6 mph 1011.5mb 68f 67f
5:06 3 5 mph 1011.5mb 68f 67f
5:00 3 6 mph 1011.5mb 68f 67f
4:54 3 6 mph 1011.5mb 68f 67f
4:48 5 6 mph 1011.5mb 68f 67f
4:42 5 6 mph 1011.5mb 68f 67f
4:36 5 6 mph 1011.6mb 68f 67f
4:30 5 6 mph 1011.7mb 68f 67f
4:24 3 6 mph 1011.6mb 69f 67f
4:18 5 7 mph 1011.6mb 69f 67f
4:12 6 7 mph 1011.7mb 69f 66f
4:06 6 7 mph 1011.7mb 69f 66f
4:00 6 7 mph 1011.7mb 69f 66f
3:54 3 7 mph 1011.7mb 69f 66f
3:48 6 8 mph 1011.6mb 69f 66f
3:42 6 7 mph 1011.7mb 69f 66f
3:36 5 6 mph 1011.7mb 69f 66f
3:30 5 6 mph 1011.7mb 69f 66f
3:24 6 7 mph 1011.7mb 69f 66f
3:18 6 7 mph 1011.8mb 68f 66f
3:12 5 6 mph 1011.8mb 68f 66f
3:06 3 5 mph 1011.8mb 68f 66f
3:00 5 6 mph 1011.8mb 68f 66f
2:54 3 6 mph 1011.8mb 68f 66f
2:48 3 6 mph 1011.9mb 68f 66f
2:42 5 6 mph 1011.8mb 68f 66f
2:36 3 6 mph 1011.8mb 68f 66f
2:30 5 6 mph 1011.7mb 68f 66f
2:24 2 5 mph 1011.6mb 67f 66f
2:18 5 6 mph 1011.7mb 67f 66f
2:12 5 6 mph 1011.8mb 67f 66f
2:06 3 5 mph 1011.8mb 67f 66f
2:00 2 5 mph 1011.8mb 67f 66f
1:54 3 5 mph 1011.8mb 67f 66f
1:48 3 6 mph 1011.9mb 66f 66f
1:42 5 6 mph 1011.9mb 66f 66f
1:36 3 5 mph 1011.9mb 65f 66f
1:30 3 5 mph 1011.9mb 65f 66f
1:24 2 5 mph 1012mb 64f 66f
1:18 3 5 mph 1012mb 63f 66f
1:12 2 3 mph 1011.9mb 62f 66f
1:06 2 2 mph 1011.9mb 62f 66f
1:00  -  2 mph 1012.1mb 62f 66f
12:54  -  2 mph 1012.1mb 62f 66f
12:48 1 2 mph 1012.1mb 62f 66f
12:42 1 3 mph 1012.1mb 62f 66f
12:36 2 3 mph 1012.1mb 62f 66f
12:30 3 5 mph 1012.2mb 63f 66f
12:24 6 7 mph 1012.2mb 63f 66f
12:18 2 6 mph 1012.3mb 64f 66f
12:12 6 8 mph 1012.2mb 65f 66f
12:06 8 9 mph 1012.3mb 67f 66f
12:00 3 5 mph 1012.3mb 68f 66f
Seg 08/14 11:54 2 2 mph 1012.3mb 68f 66f
11:48 1 3 mph 1012.4mb 68f 66f
11:42 3 6 mph 1012.4mb 68f -
11:36 5 8 mph 1012.4mb 68f -
11:30 5 6 mph 1012.5mb 69f 66f
11:24 2 6 mph 1012.3mb 69f 66f
11:18 6 7 mph 1012.3mb 69f 66f
11:12 6 10 mph 1012.1mb 69f 66f
11:06 8 10 mph 1012.1mb 69f 66f
11:00 6 8 mph 1012.1mb 69f 66f
10:54 6 6 mph 1012.2mb 69f 66f
10:48 5 6 mph 1012.2mb 69f 65f
10:42 5 6 mph 1012.2mb 69f 65f
10:36 5 6 mph 1012.3mb 69f 65f
10:30 3 7 mph 1012.3mb 69f 65f
10:24 5 6 mph 1012.3mb 69f 65f
10:18 3 5 mph 1012.3mb 69f 65f
10:12 3 7 mph 1012.3mb 69f 65f
10:06 5 7 mph 1012.2mb 69f 65f
10:00 6 8 mph 1012.2mb 69f 65f
9:54 7 9 mph 1012.2mb 69f 65f
9:48 7 8 mph 1012.1mb 69f 65f
9:42 7 8 mph 1012mb 69f 66f
9:36 6 8 mph 1012mb 69f 66f
9:30 7 8 mph 1012mb 69f 66f
9:24 6 8 mph 1011.9mb 69f 66f
9:18 3 6 mph 1011.8mb 69f 66f
9:12 5 6 mph 1011.8mb 69f 66f
9:06 2 6 mph 1011.7mb 69f 66f
9:00 5 6 mph 1011.7mb 69f 66f
8:54 3 7 mph 1011.6mb 69f 66f
8:48 5 6 mph - - -
8:42 2 6 mph 1011.6mb 69f 66f
8:36 2 5 mph 1011.5mb 69f 66f
8:30 3 5 mph 1011.4mb 69f 66f
8:24 2 2 mph 1011.5mb 69f 66f
8:18 2 7 mph 1011.5mb 69f 66f
8:12 5 7 mph 1011.5mb 69f 66f
8:06 2 5 mph 1011.5mb 69f 66f
8:00 5 7 mph 1011.5mb 69f 66f
7:54 6 7 mph 1011.5mb 69f 66f
7:48 5 6 mph 1011.4mb 69f 66f
7:42 6 8 mph 1011.4mb 69f 66f
7:36 6 7 mph 1011.4mb 69f 66f
7:30 3 6 mph 1011.5mb 69f 66f
7:24 5 7 mph 1011.4mb 69f 66f
7:18 3 7 mph - - -
7:12 5 7 mph 1011.3mb 69f 66f
7:06 5 8 mph 1011.4mb 69f 66f
7:00 8 9 mph 1011.4mb 69f 66f
6:54 7 8 mph 1011.5mb 69f 66f
6:48 3 3 mph - - -
6:42 3 6 mph 1011.3mb 69f 66f
6:36 5 9 mph 1011.3mb 69f 66f
6:30 8 9 mph 1011.3mb 69f 66f
6:24 7 10 mph 1011.2mb 69f 66f
6:18 7 8 mph 1011.3mb 69f 66f
6:12 8 9 mph 1011.2mb 69f 67f
6:06 5 9 mph 1011.1mb 70f 67f
6:00 8 10 mph 1011.2mb 70f 67f
5:54 7 8 mph 1011.1mb 70f 67f
5:48 7 8 mph 1011.2mb 70f 67f
4:54 7 10 mph 1011.5mb 71f 67f
4:48 9 11 mph 1011.5mb - -
4:42 7 9 mph 1011.5mb 71f 67f
4:36 7 11 mph 1011.5mb 71f 67f
4:30 8 10 mph 1011.5mb 71f 67f
4:24 10 11 mph 1011.5mb 71f 67f
4:18 7 10 mph - - -
4:12 9 10 mph 1011.6mb 71f 67f
4:06 9 11 mph 1011.6mb 71f 67f
4:00 10 11 mph 1011.6mb 71f 67f
3:54 10 11 mph 1011.7mb 71f 67f
3:48 10 13 mph 1011.7mb - -
3:42 9 14 mph 1011.7mb 71f 67f
3:36 10 13 mph 1011.6mb 71f 67f
3:30 11 14 mph 1011.7mb 70f 67f
3:24 13 14 mph 1011.7mb 70f 67f
3:18 13 14 mph 1011.8mb 70f 67f
3:12 11 14 mph 1011.8mb 70f 67f
3:06 10 13 mph 1011.9mb 70f 67f
3:00 11 14 mph 1011.9mb 70f 67f
2:54 11 14 mph 1012mb 70f 67f
2:48 11 14 mph - - -
2:42 11 14 mph 1012.1mb 70f 67f
2:36 13 14 mph 1012.1mb 70f 67f
2:30 13 15 mph 1012.2mb 70f 67f
2:24 13 14 mph 1012.2mb 69f 67f
2:18 13 14 mph 1012.1mb 69f 67f
2:12 13 14 mph 1012.1mb 69f 67f
2:06 11 13 mph 1012.1mb 68f 67f
2:00 11 13 mph 1012.1mb 68f 67f
1:54 10 11 mph 1012.1mb 68f 67f
1:48 11 13 mph 1012.2mb 68f 67f
1:42 9 9 mph 1012.2mb 69f 67f
1:36 8 9 mph 1012.3mb 69f 68f
1:30 8 9 mph 1012.4mb 69f 67f
1:24 8 9 mph 1012.5mb 68f 68f
1:18 9 10 mph 1012.5mb 68f 67f
1:12 9 10 mph 1012.6mb 67f 67f
1:06 9 10 mph 1012.6mb 65f 67f
1:00 9 9 mph 1012.5mb 64f 68f
12:54 8 10 mph 1012.5mb 63f 68f
12:48 9 10 mph 1012.6mb 63f 68f
12:42 9 10 mph 1012.7mb 64f 68f
12:36 9 10 mph 1012.7mb 65f 68f
12:30 7 9 mph 1012.7mb 66f 68f
12:24 6 7 mph 1012.7mb 66f 68f
12:18 5 7 mph 1012.8mb 64f 69f
12:12 5 6 mph 1012.8mb 62f 68f
12:06 6 7 mph 1012.9mb 63f 68f
12:00 6 6 mph 1012.9mb 63f 68f
11:54 5 7 mph 1013mb 63f 68f
11:48 5 7 mph 1013.1mb 62f 68f
11:42 6 6 mph 1013.1mb 62f 68f
11:36 5 6 mph 1013.1mb 63f 68f
11:30 5 6 mph 1013.1mb 62f 68f
11:24 5 7 mph 1013.2mb 62f 68f
11:18 6 7 mph 1013.2mb 62f 68f
11:12 6 7 mph 1013.3mb 62f 68f
11:06 6 7 mph 1013.3mb 62f 67f
11:00 6 8 mph 1013.3mb 62f 67f
10:54 7 8 mph 1013.4mb 62f 67f
10:48 7 9 mph 1013.3mb 62f 67f
10:42 8 9 mph 1013.3mb 62f 67f
10:36 8 9 mph 1013.3mb 62f 67f
10:30 8 9 mph 1013.3mb 62f 67f
10:24 8 9 mph 1013.3mb 63f 67f
10:18 7 10 mph 1013.4mb 63f 67f
10:12 8 9 mph 1013.4mb 63f 67f
10:06 8 9 mph 1013.4mb 64f 67f
10:00 9 10 mph 1013.4mb 64f 67f
9:54 9 10 mph 1013.3mb 64f 67f
9:48 9 10 mph 1013.2mb 65f 67f
9:42 8 10 mph 1013.1mb 65f 67f
9:36 7 10 mph 1013mb 66f 67f
9:30 8 10 mph 1013mb 67f 67f
9:24 9 11 mph 1012.9mb 67f 67f
9:18 9 11 mph 1013mb 68f 67f
9:12 9 11 mph 1013mb 69f 67f
9:06 8 10 mph 1012.9mb 68f 67f
9:00 8 10 mph 1012.8mb 68f 67f
8:54 9 10 mph 1012.8mb 67f 67f
8:48 8 9 mph 1012.8mb 67f 67f
8:42  -  mph 1012.8mb 67f 67f
8:36  -  mph 1012.8mb 67f 67f
8:30 7 9 mph 1012.8mb 66f 66f
8:24 7 8 mph 1012.8mb 66f 67f
8:18 6 8 mph 1012.6mb 65f 67f
8:12 6 8 mph 1012.7mb 66f 67f
8:06 6 8 mph 1012.7mb 66f 67f
8:00 6 8 mph 1012.7mb 65f 67f
7:54 5 6 mph 1012.6mb 65f 67f
7:48 5 7 mph 1012.5mb 65f 67f
7:42 6 7 mph 1012.5mb 65f 66f
7:36 6 7 mph 1012.5mb 65f 66f
7:30 6 7 mph 1012.5mb 65f 66f
7:24 6 7 mph 1012.5mb 65f 66f
7:18 6 7 mph 1012.5mb 66f 66f
7:12 6 6 mph 1012.4mb 66f 66f
7:06 6 9 mph 1012.4mb 66f 66f
7:00 7 9 mph 1012.4mb 66f 66f
6:54 3 7 mph 1012.4mb 66f 66f
6:48 6 6 mph 1012.4mb 66f 66f
6:42 6 7 mph 1012.3mb 66f 66f
6:36 6 7 mph 1012.3mb 66f 66f
6:30 3 6 mph 1012.3mb 67f 66f
6:24 5 6 mph 1012.2mb 67f 66f
6:18 1 7 mph 1012.1mb 67f 66f
6:12 3 6 mph 1012.2mb 68f 66f
6:06 3 6 mph 1012.2mb 69f 66f
6:00 3 6 mph 1012.2mb 69f 66f
5:54 5 7 mph 1012.1mb 69f 66f
5:48 6 7 mph 1012.2mb 69f 66f
5:42 3 7 mph 1012.2mb 68f 66f
5:36 7 7 mph 1012.1mb 67f 65f
5:30 5 6 mph 1012.1mb 67f 66f
5:24 5 7 mph 1012.1mb 66f 65f
5:18 5 7 mph 1012.2mb 66f 66f
5:12 5 7 mph 1012.1mb 66f 65f
5:06 6 7 mph 1012.2mb 66f 65f
5:00 2 6 mph 1012.1mb 66f 65f
4:54 3 7 mph 1012.1mb 66f 66f
4:48 3 6 mph 1012.2mb 67f 66f
4:42 6 8 mph 1012.2mb 68f 65f
4:36 8 10 mph 1012.2mb 69f 65f
4:30 5 7 mph 1012.2mb 70f 66f
4:24 5 6 mph 1012.3mb 70f 66f
4:18 5 8 mph 1012.3mb 70f 66f
4:12 7 9 mph 1012.3mb 70f 66f
4:06 6 8 mph 1012.3mb 70f 66f
4:00 6 8 mph 1012.3mb 69f 66f
3:54 6 8 mph 1012.3mb 69f 66f
3:48 6 8 mph 1012.3mb 69f 66f
3:42 8 9 mph 1012.3mb 69f 66f
3:36 6 8 mph 1012.3mb 69f 66f
3:30 2 5 mph 1012.4mb 69f 66f
3:24 5 6 mph 1012.4mb 68f 66f
3:18 6 8 mph 1012.4mb 68f 66f
3:12 6 8 mph 1012.4mb 68f 66f
3:06 7 10 mph 1012.4mb 68f 66f
3:00 8 8 mph 1012.4mb 68f 66f
2:54 2 6 mph 1012.4mb 67f 66f
2:48  -  3 mph 1012.3mb 67f 66f
2:42 3 5 mph 1012.3mb 67f 66f
2:36 2 7 mph 1012.4mb 67f 66f
2:30 5 7 mph 1012.5mb 67f 66f
2:24 6 7 mph 1012.5mb 67f 66f
2:18 5 9 mph 1012.5mb 67f 66f
2:12 7 10 mph 1012.5mb 66f 66f
2:06 10 11 mph 1012.5mb 66f 66f
2:00 8 10 mph 1012.4mb 65f 66f
1:54 9 9 mph 1012.5mb 65f 66f
1:48 6 8 mph 1012.5mb 64f 66f
1:42 5 7 mph 1012.5mb 65f 67f
1:36 6 8 mph 1012.5mb 65f 67f
1:30 6 7 mph 1012.6mb 65f 67f
1:24 5 8 mph 1012.6mb 65f 67f
1:18 5 9 mph 1012.6mb 66f 67f
1:12 6 7 mph 1012.6mb 68f 67f
1:06 3 5 mph 1012.7mb 68f 67f
1:00 1 2 mph 1012.7mb 69f 67f
12:54 2 3 mph 1012.7mb 69f 67f
12:48 1 6 mph 1012.8mb 69f 67f
12:42 6 8 mph 1012.8mb 70f 67f
12:36 6 7 mph 1012.8mb 70f 67f
12:30 5 7 mph 1012.8mb 69f 67f
12:24 5 6 mph 1012.8mb 70f 67f
12:18 5 9 mph 1012.8mb 70f 67f
12:12 9 11 mph 1012.9mb 70f 67f
12:06 6 11 mph 1012.8mb 71f 67f
12:00 8 10 mph 1012.8mb 71f 67f
Dom 08/13 11:54 8 9 mph 1012.8mb 71f 67f
11:48 5 7 mph 1012.9mb 72f 67f
11:42 6 7 mph 1012.9mb 71f -
11:36 6 7 mph 1012.9mb 71f -
11:30 6 7 mph 1012.8mb 71f 66f
11:24 6 7 mph 1012.8mb 71f 66f
11:18 6 7 mph 1012.8mb 71f 66f
11:12 6 7 mph 1012.9mb 71f 66f
11:06 7 8 mph 1012.9mb 70f 66f
11:00 7 7 mph 1012.8mb 69f 66f
10:54 7 8 mph 1012.8mb 70f 66f
10:48 6 7 mph 1012.8mb 68f 66f
10:42 6 7 mph 1012.7mb 68f 66f
10:36 5 6 mph 1012.7mb 68f 67f
10:30 5 6 mph 1012.8mb 68f 66f
10:24 6 6 mph 1012.9mb 68f 66f
10:18 5 6 mph 1012.9mb 68f 67f
10:12 5 6 mph 1012.8mb 68f 67f
10:06 3 7 mph 1012.8mb 68f 67f
10:00 3 5 mph 1012.8mb 68f 67f
9:54 3 6 mph 1012.7mb 68f 67f
9:48 3 5 mph 1012.7mb 68f 67f
9:42 3 5 mph 1012.7mb 69f 67f
9:36 3 5 mph 1012.6mb 70f 67f
9:30 3 6 mph 1012.6mb 70f 67f